When you browse on this site, cookies collect data to enhance your experience and personalize the content and advertising you see.
Visit our Privacy Policy to learn more. By continuing to use the site, you agree to this use of cookies and data.
  • en France
  • Liste des pays
  • À 7 jours
  • Température de l'eau
  • Carte météo
  • Widgets météo
  • user-avatar
    Se connecter

    Météo par heure à Burnie

    Ce jour, 27 Mai, Mercredi

    Heure Température Précipitation Vent Pression Humidité
    00:00 +10°C° 0 mm 4 m/s 757 mmHg 95%
    01:00 +10°C° 0 mm 4 m/s 756 mmHg 95%
    02:00 +10°C° 0 mm 4 m/s 756 mmHg 95%
    03:00 +10°C° 0 mm 4 m/s 756 mmHg 95%
    04:00 +9°C° 0 mm 5 m/s 755 mmHg 93%
    05:00 +10°C° 0 mm 4 m/s 755 mmHg 94%
    06:00 +10°C° 0 mm 4 m/s 755 mmHg 94%
    07:00 +10°C° 0 mm 4 m/s 755 mmHg 95%
    08:00 +10°C° 0.2 mm 4 m/s 755 mmHg 95%
    09:00 +11°C° 0.2 mm 4 m/s 755 mmHg 95%
    10:00 +12°C° 0 mm 3 m/s 755 mmHg 94%
    11:00 +12°C° 0.1 mm 3 m/s 754 mmHg 92%
    12:00 +13°C° 0.1 mm 3 m/s 754 mmHg 90%
    13:00 +13°C° 0.1 mm 3 m/s 753 mmHg 87%
    14:00 +13°C° 0 mm 3 m/s 753 mmHg 88%
    15:00 +13°C° 0 mm 3 m/s 752 mmHg 89%
    16:00 +12°C° 0 mm 3 m/s 752 mmHg 90%
    17:00 +12°C° 0.1 mm 3 m/s 752 mmHg 92%
    18:00 +11°C° 0.1 mm 3 m/s 752 mmHg 95%
    19:00 +11°C° 0.1 mm 3 m/s 753 mmHg 97%
    20:00 +11°C° 0.5 mm 4 m/s 752 mmHg 97%
    21:00 +11°C° 0.5 mm 4 m/s 752 mmHg 97%
    22:00 +10°C° 0.5 mm 5 m/s 752 mmHg 97%
    23:00 +11°C° 0.5 mm 4 m/s 752 mmHg 97%

    Demain, 28 Mai, Jeudi

    Heure Température Précipitation Vent Pression Humidité
    00:00 +11°C° 0.5 mm 4 m/s 752 mmHg 97%
    01:00 +11°C° 0.5 mm 3 m/s 752 mmHg 97%
    02:00 +11°C° 0.5 mm 4 m/s 752 mmHg 98%
    03:00 +11°C° 0.5 mm 4 m/s 752 mmHg 98%
    04:00 +11°C° 0.5 mm 4 m/s 752 mmHg 98%
    05:00 +11°C° 0.1 mm 4 m/s 752 mmHg 97%
    06:00 +10°C° 0.1 mm 4 m/s 752 mmHg 97%
    07:00 +10°C° 0.1 mm 4 m/s 753 mmHg 97%
    08:00 +10°C° 0 mm 4 m/s 753 mmHg 94%
    09:00 +11°C° 0 mm 4 m/s 753 mmHg 92%
    10:00 +12°C° 0 mm 4 m/s 753 mmHg 90%
    11:00 +12°C° 0 mm 4 m/s 753 mmHg 85%
    12:00 +13°C° 0 mm 4 m/s 753 mmHg 80%
    13:00 +13°C° 0 mm 5 m/s 753 mmHg 75%
    14:00 +13°C° 0 mm 4 m/s 753 mmHg 76%
    15:00 +12°C° 0 mm 4 m/s 754 mmHg 76%
    16:00 +12°C° 0 mm 4 m/s 754 mmHg 77%
    17:00 +10°C° 0 mm 4 m/s 754 mmHg 83%
    18:00 +9°C° 0 mm 3 m/s 755 mmHg 89%
    19:00 +8°C° 0 mm 3 m/s 755 mmHg 95%
    20:00 +8°C° 0 mm 3 m/s 756 mmHg 96%
    21:00 +8°C° 0 mm 3 m/s 756 mmHg 96%
    22:00 +8°C° 0 mm 3 m/s 756 mmHg 97%
    23:00 +8°C° 0 mm 3 m/s 756 mmHg 97%

    Après-demain, 29 Mai, Vendredi

    Heure Température Précipitation Vent Pression Humidité
    00:00 +8°C° 0 mm 3 m/s 756 mmHg 97%
    01:00 +8°C° 0 mm 3 m/s 756 mmHg 97%
    02:00 +9°C° 0 mm 3 m/s 756 mmHg 97%
    03:00 +9°C° 0 mm 3 m/s 756 mmHg 97%
    04:00 +10°C° 0 mm 2 m/s 756 mmHg 96%
    05:00 +10°C° 0 mm 3 m/s 756 mmHg 97%
    06:00 +10°C° 0 mm 3 m/s 757 mmHg 97%
    07:00 +10°C° 0 mm 3 m/s 757 mmHg 97%
    08:00 +10°C° 0 mm 3 m/s 757 mmHg 95%
    09:00 +11°C° 0 mm 3 m/s 757 mmHg 94%
    10:00 +12°C° 0 mm 3 m/s 757 mmHg 92%
    11:00 +12°C° 0.1 mm 4 m/s 757 mmHg 91%
    12:00 +12°C° 0.1 mm 4 m/s 757 mmHg 90%
    13:00 +13°C° 0.1 mm 5 m/s 757 mmHg 89%
    14:00 +12°C° 0.1 mm 5 m/s 757 mmHg 90%
    15:00 +12°C° 0.1 mm 4 m/s 756 mmHg 90%
    16:00 +12°C° 0.1 mm 4 m/s 756 mmHg 91%
    17:00 +11°C° 0 mm 4 m/s 756 mmHg 92%
    18:00 +10°C° 0 mm 4 m/s 757 mmHg 93%
    19:00 +10°C° 0 mm 4 m/s 757 mmHg 95%
    20:00 +8°C° 0 mm 4 m/s 757 mmHg 95%
    21:00 +9°C° 0 mm 3 m/s 757 mmHg 96%
    22:00 +8°C° 0 mm 3 m/s 756 mmHg 97%
    23:00 +9°C° 0 mm 3 m/s 756 mmHg 96%

    30 Mai, Samedi

    Heure Température Précipitation Vent Pression Humidité
    00:00 +9°C° 0 mm 3 m/s 756 mmHg 95%
    01:00 +10°C° 0 mm 4 m/s 756 mmHg 94%
    02:00 +10°C° 0.1 mm 4 m/s 755 mmHg 95%
    03:00 +9°C° 0.1 mm 5 m/s 755 mmHg 95%
    04:00 +9°C° 0.1 mm 6 m/s 755 mmHg 96%
    05:00 +9°C° 0 mm 6 m/s 754 mmHg 96%
    06:00 +9°C° 0 mm 6 m/s 754 mmHg 96%
    07:00 +9°C° 0 mm 6 m/s 754 mmHg 96%
    08:00 +10°C° 0 mm 6 m/s 754 mmHg 94%
    09:00 +11°C° 0 mm 7 m/s 754 mmHg 91%
    10:00 +11°C° 0 mm 7 m/s 754 mmHg 89%
    11:00 +12°C° 0 mm 7 m/s 753 mmHg 86%
    12:00 +12°C° 0 mm 7 m/s 752 mmHg 83%
    13:00 +12°C° 0 mm 8 m/s 751 mmHg 81%
    14:00 +12°C° 0 mm 8 m/s 750 mmHg 81%
    15:00 +11°C° 0 mm 8 m/s 749 mmHg 81%
    16:00 +11°C° 0 mm 8 m/s 749 mmHg 81%
    17:00 +11°C° 0 mm 8 m/s 748 mmHg 83%
    18:00 +11°C° 0 mm 7 m/s 748 mmHg 85%
    19:00 +10°C° 0 mm 7 m/s 748 mmHg 87%
    20:00 +11°C° 0.1 mm 8 m/s 747 mmHg 86%
    21:00 +11°C° 0.1 mm 9 m/s 747 mmHg 85%
    22:00 +11°C° 0.1 mm 10 m/s 746 mmHg 84%
    23:00 +11°C° 1.3 mm 10 m/s 746 mmHg 87%

    31 Mai, Dimanche

    Heure Température Précipitation Vent Pression Humidité
    00:00 +9°C° 1.3 mm 10 m/s 745 mmHg 91%
    01:00 +9°C° 1.3 mm 10 m/s 745 mmHg 94%
    02:00 +8°C° 0.4 mm 9 m/s 745 mmHg 94%
    03:00 +9°C° 0.4 mm 7 m/s 745 mmHg 94%
    04:00 +8°C° 0.4 mm 5 m/s 745 mmHg 94%
    05:00 +8°C° 0.1 mm 5 m/s 746 mmHg 95%
    06:00 +7°C° 0.1 mm 5 m/s 746 mmHg 95%
    07:00 +6°C° 0.1 mm 4 m/s 746 mmHg 96%
    08:00 +7°C° 0 mm 4 m/s 747 mmHg 93%
    09:00 +8°C° 0 mm 4 m/s 747 mmHg 90%
    10:00 +8°C° 0 mm 4 m/s 747 mmHg 87%
    11:00 +9°C° 0 mm 5 m/s 746 mmHg 80%
    12:00 +10°C° 0 mm 5 m/s 746 mmHg 73%
    13:00 +10°C° 0 mm 6 m/s 745 mmHg 66%
    14:00 +10°C° 0 mm 6 m/s 745 mmHg 70%
    15:00 +9°C° 0 mm 6 m/s 745 mmHg 74%
    16:00 +9°C° 0 mm 6 m/s 744 mmHg 78%
    17:00 +8°C° 0.2 mm 6 m/s 744 mmHg 82%
    18:00 +8°C° 0.2 mm 7 m/s 743 mmHg 86%
    19:00 +7°C° 0.2 mm 8 m/s 743 mmHg 90%
    20:00 +7°C° 0.4 mm 9 m/s 742 mmHg 91%
    21:00 +8°C° 0.4 mm 9 m/s 741 mmHg 91%
    22:00 +8°C° 0.4 mm 10 m/s 741 mmHg 92%
    23:00 +7°C° 1.9 mm 8 m/s 741 mmHg 92%

    1 Juin, Lundi

    Heure Température Précipitation Vent Pression Humidité
    00:00 +6°C° 1.9 mm 7 m/s 741 mmHg 93%
    01:00 +6°C° 1.9 mm 5 m/s 741 mmHg 94%
    02:00 +5°C° 0 mm 6 m/s 741 mmHg 92%
    03:00 +4°C° 0 mm 6 m/s 741 mmHg 91%
    04:00 +4°C° 0 mm 6 m/s 742 mmHg 89%
    05:00 +3°C° 0 mm 6 m/s 742 mmHg 89%
    06:00 +3°C° 0 mm 6 m/s 743 mmHg 90%
    07:00 +2°C° 0 mm 6 m/s 744 mmHg 90%
    08:00 +3°C° 0 mm 6 m/s 745 mmHg 85%
    09:00 +4°C° 0 mm 6 m/s 746 mmHg 79%
    10:00 +4°C° 0 mm 6 m/s 746 mmHg 74%
    11:00 +5°C° 0 mm 6 m/s 747 mmHg 72%
    12:00 +6°C° 0 mm 5 m/s 747 mmHg 70%
    13:00 +7°C° 0 mm 5 m/s 747 mmHg 68%
    14:00 +6°C° 0.1 mm 5 m/s 747 mmHg 70%
    15:00 +5°C° 0.1 mm 5 m/s 748 mmHg 72%
    16:00 +5°C° 0.1 mm 5 m/s 748 mmHg 74%
    17:00 +3°C° 0 mm 5 m/s 749 mmHg 77%
    18:00 +2°C° 0 mm 5 m/s 750 mmHg 80%
    19:00 +1°C° 0 mm 5 m/s 751 mmHg 83%
    20:00 +1°C° 0 mm 4 m/s 751 mmHg 85%
    21:00 0°C° 0 mm 4 m/s 752 mmHg 87%
    22:00 +1°C° 0 mm 3 m/s 753 mmHg 88%
    23:00 +1°C° 0 mm 3 m/s 753 mmHg 87%
    Voir plus